{"data":{"norad_id":61980,"intl_designator":"2024-210X","name":"STARLINK-32517","alt_names":[],"object_type":"PAYLOAD","status":"ACTIVE","operator":null,"country":"US","launch_date":"2024-11-14","launch_site_code":"AFETR","launch_vehicle":null,"mission":null,"orbit_class":"UNKNOWN","rcs_meters":null,"size_class":null,"mass_kg":null,"dimensions":null,"purposes":["comms"],"wikipedia_slug":null,"has_3d_model":false,"image_url":null,"decayed_at":null,"tle_current":{"epoch":"2026-05-25T04:17:56.679936Z","epoch_age_seconds":66490,"freshness":"FRESH","line1":"1 61980U 24210X   26145.17912824  .00019444  00000+0  71399-3 0  9998","line2":"2 61980  42.9996 108.2275 0000578 243.2044 116.8749 15.27591755 86523","mean_motion":15.27591755,"eccentricity":5.78e-5,"inclination_deg":42.9996,"raan_deg":108.2275,"arg_perigee_deg":243.2044,"mean_anomaly_deg":116.8749,"bstar":0.00071399,"rev_number":8652,"period_min":94.266023319823,"perigee_km":482.61732304465,"apogee_km":483.41047208841,"semimajor_km":6861.1508975665,"source":"CELESTRAK","updated_at":"2026-05-25T13:38:19.517424Z"}}}